TimeEDT,TemperatureF,Dew PointF,Humidity,Sea Level PressureIn,VisibilityMPH,Wind Direction,Wind SpeedMPH,Gust SpeedMPH,PrecipitationIn,Events,Conditions,WindDirDegrees,DateUTC
12:53 AM,80.1,75.0,85,30.06,10.0,Calm,Calm,-,N/A,,Clear,0,2013-08-03 04:53:00
1:53 AM,79.0,73.9,84,30.05,10.0,Calm,Calm,-,N/A,,Partly Cloudy,0,2013-08-03 05:53:00
2:53 AM,79.0,75.0,88,30.04,10.0,SE,3.5,-,N/A,,Partly Cloudy,130,2013-08-03 06:53:00
3:53 AM,78.1,73.9,87,30.03,10.0,Calm,Calm,-,0.03,,Scattered Clouds,0,2013-08-03 07:53:00
4:53 AM,80.1,75.9,87,30.02,10.0,Calm,Calm,-,N/A,,Partly Cloudy,0,2013-08-03 08:53:00
5:53 AM,79.0,75.9,90,30.04,10.0,Calm,Calm,-,N/A,,Partly Cloudy,0,2013-08-03 09:53:00
6:53 AM,80.1,73.9,81,30.04,10.0,WSW,3.5,-,N/A,,Scattered Clouds,250,2013-08-03 10:53:00
7:53 AM,82.0,75.9,82,30.07,10.0,Calm,Calm,-,N/A,,Scattered Clouds,0,2013-08-03 11:53:00
8:53 AM,84.9,73.9,69,30.08,10.0,Calm,Calm,-,N/A,,Scattered Clouds,0,2013-08-03 12:53:00
9:53 AM,84.9,73.9,69,30.08,10.0,WSW,4.6,-,N/A,,Scattered Clouds,240,2013-08-03 13:53:00
10:53 AM,86.0,73.9,67,30.09,10.0,SW,3.5,-,N/A,,Scattered Clouds,230,2013-08-03 14:53:00
11:53 AM,88.0,75.0,65,30.09,10.0,WSW,3.5,-,N/A,,Mostly Cloudy,240,2013-08-03 15:53:00
12:53 PM,88.0,73.9,63,30.09,10.0,Variable,4.6,-,N/A,,Scattered Clouds,0,2013-08-03 16:53:00
1:53 PM,89.1,73.0,59,30.08,10.0,West,6.9,-,N/A,,Scattered Clouds,260,2013-08-03 17:53:00
2:53 PM,91.0,73.9,57,30.06,10.0,West,12.7,-,N/A,Thunderstorm,Thunderstorm,260,2013-08-03 18:53:00
3:53 PM,88.0,73.9,63,30.06,10.0,West,15.0,-,N/A,Thunderstorm,Thunderstorm,270,2013-08-03 19:53:00
4:53 PM,89.1,75.0,63,30.06,10.0,WSW,11.5,-,N/A,,Mostly Cloudy,250,2013-08-03 20:53:00
5:53 PM,89.1,73.0,59,30.07,10.0,WSW,10.4,-,N/A,,Mostly Cloudy,250,2013-08-03 21:53:00
6:53 PM,87.1,73.0,63,30.06,10.0,SW,10.4,-,N/A,,Overcast,230,2013-08-03 22:53:00
7:53 PM,84.9,73.9,69,30.07,10.0,WSW,10.4,-,N/A,,Overcast,240,2013-08-03 23:53:00
8:53 PM,84.0,73.0,69,30.08,10.0,WSW,6.9,-,N/A,,Mostly Cloudy,250,2013-08-04 00:53:00
9:53 PM,84.0,73.9,72,30.10,10.0,SW,8.1,-,N/A,,Mostly Cloudy,220,2013-08-04 01:53:00
10:53 PM,84.0,73.9,72,30.11,10.0,WSW,5.8,-,N/A,,Mostly Cloudy,250,2013-08-04 02:53:00
11:53 PM,84.0,73.9,72,30.11,10.0,West,8.1,-,N/A,,Mostly Cloudy,260,2013-08-04 03:53:00